{"data":{"norad_id":61749,"epoch":"2026-05-25T03:44:35.985120Z","epoch_age_seconds":65498,"freshness":"FRESH","line1":"1 61749U 24199Q   26145.15597205  .00033970  00000+0  53769-3 0  9998","line2":"2 61749  97.3027  20.9542 0006492  18.3478 341.8008 15.53345638133993","mean_motion":15.53345638,"eccentricity":0.0006492,"inclination_deg":97.3027,"raan_deg":20.9542,"arg_perigee_deg":18.3478,"mean_anomaly_deg":341.8008,"bstar":0.00053769,"rev_number":13399,"period_min":92.703128316893,"perigee_km":402.56103434158,"apogee_km":411.37081197701,"semimajor_km":6785.1029231593,"source":"CELESTRAK","updated_at":"2026-05-25T13:38:02.533724Z"}}